Location: Wonder Lake State Park
(41.4960°N, 73.6562°W)
Time: 09:32:05
(UTC-05:00)

Daily predictions for brighter satellites

Satellite Brightness Start Highest point End
(mag) Time Altitude Azimuth Time Altitude Azimuth Time Altitude Azimuth
Cosmos 1048 Rocket 4.4 16:47:55 10° NNW 16:53:14 74° WSW 16:58:34 10° S
Okean 1 Rocket 3.9 16:50:33 10° NNW 16:54:48 56° W 16:59:02 10° S
Cosmos 1633 3.7 16:54:10 10° NNW 16:57:39 48° W 17:01:06 10° S
Cosmos 1544 Rocket 4.0 16:55:15 10° N 16:59:29 40° ENE 17:03:42 10° SSE
COSMO-SKYMED 1 4.1 16:58:27 10° NE 17:01:18 17° E 17:04:06 10° SE
Cosmos 1975 Rocket 3.0 16:58:58 10° S 17:03:16 89° E 17:07:37 10° N
Cosmos 2263 Rocket 4.1 17:01:35 10° WSW 17:06:09 25° NW 17:10:46 10° N
PAYLOAD A 4.0 17:06:05 10° SSE 17:10:53 85° WSW 17:15:53 10° NNW
GEOS 3 Rocket 4.4 17:14:26 10° E 17:18:49 30° NE 17:23:13 10° NNW
Cosmos 1536 Rocket 4.0 17:15:43 10° SSE 17:19:54 41° E 17:24:07 10° NNE
SJ-7 4.4 17:17:53 10° SSE 17:22:05 70° ENE 17:26:20 10° N
USA 234 3.5 17:16:54 10° NE 17:23:24 68° NW 17:29:51 10° WSW
Tiangong 1 3.1 17:21:46 10° SSW 17:23:50 17° SSE 17:25:29 12° ESE
SPOT 3 Rocket 3.6 17:19:45 10° SSE 17:24:57 88° ENE 17:30:09 10° NNW
Okean 1 3.7 17:23:12 10° SSE 17:27:00 41° E 17:30:51 10° NNE
YAOGAN 1 2.5 17:23:39 10° SSE 17:27:58 86° ENE 17:32:19 10° NNW
Meteor 1-18 Rocket 4.2 17:22:30 10° S 17:28:03 65° E 17:33:45 10° NNE
Cosmos 1844 Rocket 3.1 17:25:36 10° SW 17:31:09 65° WNW 17:36:45 10° NNE
Cosmos 1812 2.6 17:27:31 10° S 17:31:21 68° E 17:35:12 10° NNE
CZ-4 R/B 4.3 17:28:28 10° SSE 17:32:35 72° ENE 17:36:44 10° N
BREEZE M DEB (TANK) 3.8 17:23:02 10° SW 17:33:05 44° SSE 17:35:33 19° E
COSMOS 2487 3.4 17:33:24 10° N 17:36:29 26° ENE 17:38:37 16° ESE
EP 2 4.1 17:34:36 10° SSW 17:37:12 77° SE 17:38:30 26° NE
AQUARIUS 4.5 17:32:44 10° S 17:37:12 70° WSW 17:41:42 10° NNW
Cosmos 921 Rocket 4.3 17:34:14 10° SE 17:37:18 20° E 17:37:43 20° E
USA 32 4.3 17:32:45 10° S 17:37:57 74° W 17:43:12 10° N
NOSS 3-3 (A) 4.0 17:32:22 10° SSW 17:38:25 64° ESE 17:44:01 15° NE
NOSS 3-3 (C) 4.1 17:32:28 10° SSW 17:38:32 63° ESE 17:44:05 15° NE
FALCON 9 R/B 4.4 17:09:39 10° WSW 17:39:37 55° S 17:46:24 15° E
SL-8 Rocket 4.3 17:33:42 10° NNW 17:39:49 69° W 17:45:55 10° S
ISS -1.9 17:37:29 10° W 17:40:25 29° NNW 17:42:12 18° NNE
Cosmos 1346 Rocket 3.1 17:39:21 10° SSE 17:43:01 40° E 17:45:20 19° NE
IDEFIX/ARIANE 42P 3.1 17:40:22 10° S 17:45:31 63° W 17:50:41 10° NNW
CORIOLIS 4.5 17:40:33 10° S 17:45:56 71° WSW 17:51:21 10° NNW
ASTRO F (AKARI) 4.2 17:43:38 11° NNE 17:46:39 85° WNW 17:49:47 10° SSW
ATLAS 2AS CENTAUR R/B 3.2 17:39:07 10° NW 17:47:13 79° WSW 17:54:43 10° SSE
Cosmos 494 Rocket 4.0 17:41:58 10° NNW 17:47:14 85° WSW 17:52:30 10° SSE
Cosmos 1844 4.1 17:42:24 10° SW 17:47:54 63° WNW 17:53:26 10° NNE
Cosmos 1455 Rocket 3.3 17:44:34 10° NNW 17:48:58 74° W 17:53:22 10° S
SKYMED 2 3.6 17:45:30 11° NNE 17:49:40 55° E 17:53:55 10° S
Cosmos 2297 4.2 17:44:58 10° S 17:50:10 39° ESE 17:53:05 23° NE
Cosmos 2366 rocket 4.2 17:44:44 10° N 17:51:06 78° W 17:57:23 10° S
Okean 1-7 Rocket 4.2 17:49:12 10° SSE 17:53:17 34° E 17:54:42 28° NE
CZ-3B DEB 2.5 17:51:37 10° WSW 17:55:25 68° NW 18:02:17 18° NE
MSX 4.0 17:52:27 10° S 17:58:12 76° WSW 18:03:58 10° NNW
Cosmos 1809 Rocket 4.3 17:56:24 10° N 18:02:35 74° E 18:08:40 10° SSE
CZ-4 R/B 3.8 17:59:05 10° SSW 18:02:36 26° W 18:06:07 10° NW
Abrixas 3.9 18:01:32 10° NW 18:03:36 26° N 18:03:36 26° N
Cosmos 2278 Rocket 2.3 17:58:43 10° SSW 18:04:21 77° WNW 18:09:21 14° NNE
SL-24 DEB 4.4 17:59:48 10° N 18:04:34 77° W 18:09:14 10° SSW
Cosmos 1238 Rocket 4.3 18:04:58 10° SW 18:07:32 26° WNW 18:10:10 10° NNW
CZ-2C R/B 4.2 18:05:15 10° SSW 18:09:46 35° W 18:14:26 10° NNW
BREEZE-M R/B 4.1 17:59:05 10° WSW 18:09:47 82° NNW 18:12:19 34° NE
Timation 2 Rocket 4.1 18:03:33 10° NNW 18:10:20 63° ENE 18:17:09 10° SE
Cosmos 1975 3.4 18:07:17 10° NNW 18:11:19 60° W 18:15:17 10° S
Meteor 1-19 Rocket 4.3 18:08:48 10° S 18:14:25 56° E 18:18:28 20° NNE
Cosmos 2239 Rocket 4.5 18:10:18 10° N 18:16:23 55° ENE 18:22:24 10° SSE
Genesis I 3.1 18:18:30 10° NW 18:22:27 85° SW 18:23:19 53° SSE
NOAA 12 3.9 18:20:10 10° SSE 18:25:26 73° ENE 18:30:41 10° N
Cosmos 1821 Rocket 3.8 18:19:56 10° N 18:25:59 62° E 18:32:00 10° SSE
Cosmos 1484 Rocket 4.1 18:25:16 10° SSW 18:28:49 39° W 18:32:21 10° NNW
TIMED 4.4 18:25:01 10° SSW 18:29:22 88° ESE 18:29:59 66° NNE
Cosmos 2082 Rocket 2.0 18:24:06 10° NNW 18:29:46 73° ENE 18:33:42 21° SSE
SL-8 R/B 3.9 18:25:19 10° WSW 18:30:03 63° NNW 18:30:50 54° NNE
Cosmos 1833 Rocket 2.6 18:25:47 10° NNW 18:31:25 64° ENE 18:33:05 44° SE
Meteor 1-13 Rocket 4.2 18:26:05 10° S 18:31:44 85° W 18:37:11 12° N
METEOR-M 4.0 18:28:14 10° SSE 18:33:33 73° ENE 18:38:53 10° N
NOSS 2-1 (D) 4.0 18:30:49 10° SSW 18:33:31 42° S 18:33:31 42° S
NOSS 2-1 (C) 4.1 18:31:29 10° SSW 18:34:10 41° S 18:34:10 41° S
COSMO-SKYMED 1 3.7 18:34:05 13° N 18:37:39 43° WNW 18:41:44 10° SW
Meteor 1-23 Rocket 4.2 18:38:09 10° S 18:43:21 60° ESE 18:43:21 60° ESE
Meteor 1-28 Rocket 3.9 18:45:29 52° W 18:45:29 52° W 18:49:03 10° SSW
Timation 1 Rocket 4.3 18:48:09 10° SSW 18:54:05 80° WNW 18:55:27 55° N
GEOS 3 Rocket 4.2 18:53:31 22° S 18:56:39 53° WSW 19:01:39 10° NW
Meteor 2-4 Rocket 3.5 18:53:15 10° S 18:58:30 83° SW 18:58:30 83° SW
Tiangong 1 4.2 18:56:41 10° WSW 18:57:11 14° WSW 18:57:11 14° WSW
USA 234 4.5 19:03:52 26° N 19:05:41 29° NNW 19:11:08 10° WNW
ATLAS 3B CENTAUR R/B 4.0 19:00:09 10° WSW 19:13:35 34° SSW 19:15:58 29° SSE
BREEZE M DEB (TANK) 3.9 19:17:09 10° WNW 19:21:44 81° NNE 19:21:54 81° NE
NOSS 3-4 (A) 3.8 19:15:54 10° NNW 19:22:00 68° NNW 19:22:00 68° NNW
NOSS 3-4 (C) 3.9 19:16:00 10° NNW 19:22:03 67° N 19:22:03 67° N
CZ-3B DEB 4.5 20:26:02 10° WNW 20:30:54 37° NNW 20:30:54 37° NNW
